Location: Beau Repaire
(50.6144°N, 4.0551°E)
Time: 15:27:56
(UTC+00:00)

Cosmos 1898 Rocket - Pass Details

Date: 15 May 2026
Orbit: 749 x 778 km, 74.0° (Epoch: 10 June)

Event Time Altitude Azimuth Distance (km) Brightness Sun altitude
Rises 22:55:24 0° 333° (NNW) 3,217 8.1 -19.6°
Reaches altitude 10° 22:57:47 10° 329° (NNW) 2,291 7.0 -19.7°
Maximum altitude 23:02:52 59° 252° (WSW) 880 3.7 -19.9°
Enters shadow 23:04:35 39° 193° (SSW) 1,132 3.9 -19.9°
